{"data":{"norad_id":40076,"epoch":"2026-09-19T19:21:47.159712Z","epoch_age_seconds":74235,"freshness":"FRESH","line1":"1 40076U 14037H   26262.80679583  .00005289  00000+0  29168-3 0  9998","line2":"2 40076  98.3887 264.5257 0004806 320.8514  39.2367 15.14474002662545","mean_motion":15.14474002,"eccentricity":0.0004806,"inclination_deg":98.3887,"raan_deg":264.5257,"arg_perigee_deg":320.8514,"mean_anomaly_deg":39.2367,"bstar":0.00029168,"rev_number":66254,"period_min":95.082516972781,"perigee_km":519.25942450186,"apogee_km":525.89238974819,"semimajor_km":6900.712907125,"source":"CELESTRAK","updated_at":"2026-09-20T09:00:47.445945Z"}}